sat.trackr.live / text

‹ back to catalog

STARLINK-34579

NORAD 64925 · 2025-157X

PAYLOAD ACTIVE UNKNOWN

§ Identity

Operator
Country
US
Launch date
2025-07-26
Launch site
AFETR
Launch vehicle
Mass (kg)
RCS (m²)

Purposes: comms

External: N2YO · Heavens-Above · Gunter

§ Orbital elements

Epoch: 2026-09-20T07:07:12.594720Z

Period
93.85 min
Inclination
53.1602°
Eccentricity
0.0001518
Mean motion
15.34385982 rev/d
Perigee alt
461.7 km
Apogee alt
463.8 km
Semi-major
6,840.9 km
B*
2.9453e-4
RAAN
158.5699°
Arg perigee
95.4407°
Mean anomaly
264.6769°
Rev number
6,596

§ Raw data

STARLINK-345791 64925U 25157X   26263.29667355  .00009583  00000+0  29453-3 0  99982 64925  53.1602 158.5699 0001518  95.4407 264.6769 15.34385982 65966

JSON: /api/v1/satellites/64925 · /tle

For live sub-satellite position, see the globe view (requires WebGL).

§ Visibility from observer

Set your observer location to see the next 7 days of passes ≥ 10°. The values pass through the URL so the page stays shareable.

No JS? Fill the form by hand. The geolocation button needs JavaScript.